period_start,C,m1,H,J0,J1,J2,J3,J4,J5,JA,JB,JC,JD,JJ,JK,JN,#
2015-03-28 00:02:48,0.11,0.00,0.00,21.73,26.04,29.16,4.71,26.66,1021.03,2039.00,3509.07,3328.18,3616.22,346.11,347.59,0.00,0000 0000 0000 0000 000000
2015-03-28 00:07:49,0.11,0.00,0.00,21.78,26.06,29.18,4.82,26.77,1021.03,2038.99,3505.38,3326.79,3614.41,350.04,350.63,0.03,0000 0000 0000 0000 000000
2015-03-28 00:12:51,0.12,0.00,0.00,21.83,26.07,29.22,4.86,26.77,1021.09,2038.97,3502.92,3325.39,3612.50,349.74,350.34,0.06,0000 0000 0000 0000 000000
2015-03-28 00:17:52,0.14,0.01,0.00,21.84,26.10,29.23,4.78,26.82,1021.07,2038.97,3500.57,3323.93,3610.78,349.73,350.31,0.09,0000 0000 0000 0000 000000
2015-03-28 00:22:53,0.14,0.01,0.00,21.85,26.12,29.24,4.83,26.76,1021.04,2038.88,3498.29,3322.55,3609.12,349.82,350.46,0.12,0000 0000 0000 0000 000000
2015-03-28 00:27:55,0.14,0.02,0.00,21.89,26.14,29.25,4.84,26.68,1021.04,2038.74,3496.06,3321.18,3607.51,350.19,350.69,0.15,0000 0000 0000 0000 000000
2015-03-28 00:32:56,0.09,0.02,0.00,21.90,26.16,29.28,4.84,26.73,1021.07,2038.30,3493.84,3319.71,3605.70,349.94,350.49,0.18,0000 0000 0000 0000 000000
2015-03-28 00:37:58,0.13,0.02,0.00,21.92,26.18,29.32,4.84,26.76,1021.10,2038.10,3491.61,3318.21,3603.95,349.82,350.37,0.21,0000 0000 0000 0000 000000
2015-03-28 00:42:59,0.15,0.03,0.00,21.96,26.20,29.33,4.75,26.68,1021.16,2038.01,3489.46,3316.78,3602.39,349.44,349.98,0.24,0000 0000 0000 0000 000000
2015-03-28 00:48:00,0.15,0.03,0.00,22.00,26.22,29.35,4.85,26.69,1021.26,2038.00,3487.35,3315.43,3600.73,350.10,350.40,0.27,0000 0000 0000 0000 000000
2015-03-28 00:53:02,0.16,0.04,0.00,22.04,26.25,29.36,4.84,26.77,1021.10,2038.00,3485.14,3313.92,3599.08,350.26,350.62,0.30,0000 0000 0000 0000 000000
2015-03-28 00:58:03,0.16,0.04,0.00,22.07,26.27,29.42,4.81,26.81,1021.03,2038.00,3482.92,3312.48,3597.26,349.92,350.22,0.33,0000 0000 0000 0000 000000
2015-03-28 01:03:04,0.15,0.05,0.00,22.10,26.30,29.46,4.76,26.77,1021.04,2037.99,3480.66,3310.95,3595.54,349.78,350.25,0.36,0000 0000 0000 0000 000000
2015-03-28 01:08:05,0.16,0.05,0.00,22.14,26.33,29.45,4.79,26.68,1021.08,2037.98,3478.51,3309.49,3593.87,349.53,349.80,0.38,0000 0000 0000 0000 000000
2015-03-28 01:13:07,0.12,0.06,0.00,22.14,26.35,29.50,4.83,26.62,1021.06,2037.97,3476.51,3308.27,3592.55,349.98,350.20,0.41,0000 0000 0000 0000 000000
2015-03-28 01:18:08,0.14,0.06,0.00,22.17,26.38,29.53,4.83,26.66,1021.08,2037.96,3474.56,3306.95,3591.10,349.99,350.23,0.44,0000 0000 0000 0000 000000
2015-03-28 01:23:09,0.10,0.06,0.00,22.23,26.41,29.57,4.79,26.68,1021.04,2037.77,3472.69,3305.63,3589.54,349.71,349.81,0.47,0000 0000 0000 0000 000000
2015-03-28 01:28:10,0.06,0.06,0.00,22.29,26.43,29.60,4.83,26.73,1021.02,2037.14,3470.71,3304.21,3587.81,349.95,349.97,0.50,0000 0000 0000 0000 000000
2015-03-28 01:33:11,0.13,0.07,0.00,22.31,26.46,29.60,4.77,26.68,1021.02,2037.02,3468.78,3302.87,3586.31,349.95,350.12,0.53,0000 0000 0000 0000 000000
2015-03-28 01:38:13,0.15,0.07,0.00,22.39,26.49,29.63,4.80,26.67,1021.01,2037.00,3466.74,3301.45,3584.64,349.95,349.98,0.56,0000 0000 0000 0000 000000
2015-03-28 01:43:14,0.13,0.08,0.00,22.41,26.52,29.63,4.85,26.67,1021.02,2037.00,3464.78,3300.13,3583.22,350.11,349.82,0.59,0000 0000 0000 0000 000000
2015-03-28 01:48:15,0.15,0.08,0.00,22.41,26.55,29.67,4.83,26.64,1021.01,2036.99,3462.82,3298.74,3581.78,349.87,349.87,0.62,0000 0000 0000 0000 000000
2015-03-28 01:53:17,0.14,0.09,0.00,22.51,26.57,29.68,4.81,26.76,1021.01,2036.99,3460.79,3297.42,3580.26,349.97,349.76,0.65,0000 0000 0000 0000 000000
2015-03-28 01:58:18,0.15,0.09,0.00,22.53,26.61,29.74,4.83,26.71,1021.01,2036.96,3458.67,3295.91,3578.60,350.01,349.67,0.68,0000 0000 0000 0000 000000
2015-03-28 02:03:19,0.14,0.09,0.00,22.52,26.63,29.78,4.84,26.67,1021.01,2036.89,3456.66,3294.57,3576.97,350.11,349.87,0.71,0000 0000 0000 0000 000000
2015-03-28 02:08:21,0.05,0.10,0.00,22.97,26.66,29.92,4.83,26.73,1021.01,2036.51,3454.79,3293.18,3575.47,349.41,348.86,0.74,0000 0000 0000 0000 000000
2015-03-28 02:13:22,0.11,0.10,0.00,23.36,26.70,29.97,4.76,26.51,1021.01,2036.16,3452.87,3291.82,3573.80,349.66,348.43,0.77,0000 0000 0000 0000 000000
2015-03-28 02:18:23,0.13,0.10,0.00,22.83,26.73,29.81,4.73,26.49,1021.01,2036.02,3450.85,3290.46,3572.30,349.93,349.20,0.79,0000 0000 0000 0000 000000
2015-03-28 02:23:25,0.13,0.11,0.00,22.51,26.75,29.48,4.85,26.56,1021.01,2036.00,3448.83,3289.15,3570.81,350.48,350.05,0.82,0000 0000 0000 0000 000000
2015-03-28 02:28:26,0.13,0.11,0.00,23.02,26.75,29.19,4.75,26.63,1020.95,2036.00,3446.99,3288.00,3569.47,349.51,348.66,0.85,0000 0000 0000 0000 000000
2015-03-28 02:33:27,0.12,0.11,0.00,22.69,26.75,29.09,4.78,26.73,1020.98,2036.00,3445.31,3286.81,3568.20,349.55,349.09,0.88,0000 0000 0000 0000 000000
2015-03-28 02:38:29,0.14,0.12,0.00,22.27,26.73,29.01,4.78,26.68,1020.95,2036.00,3443.47,3285.65,3566.79,350.21,350.24,0.91,0000 0000 0000 0000 000000
2015-03-28 02:43:30,0.13,0.12,0.00,22.22,26.72,29.06,4.85,26.73,1021.01,2036.01,3441.50,3284.44,3565.46,349.84,350.04,0.94,0000 0000 0000 0000 000000
2015-03-28 02:48:31,0.13,0.13,0.00,22.11,26.70,29.14,4.84,26.75,1021.01,2036.00,3439.59,3283.19,3564.00,350.18,350.59,0.97,0000 0000 0000 0000 000000
2015-03-28 02:53:32,0.14,0.13,0.00,22.16,26.69,29.18,4.86,26.80,1021.01,2036.00,3437.69,3281.91,3562.59,349.90,350.09,1.00,0000 0000 0000 0000 000000
2015-03-28 02:58:34,0.14,0.13,0.00,22.18,26.67,29.19,4.87,26.82,1021.01,2036.00,3435.84,3280.71,3561.26,350.43,350.58,1.03,0000 0000 0000 0000 000000
2015-03-28 03:03:35,0.13,0.14,0.00,22.29,26.67,29.30,4.73,26.77,1020.98,2036.00,3434.00,3279.56,3559.84,349.69,350.05,1.06,0000 0000 0000 0000 000000
2015-03-28 03:08:36,0.12,0.14,0.00,22.35,26.67,29.41,4.81,26.77,1020.97,2036.00,3432.24,3278.39,3558.50,349.67,349.67,1.09,0000 0000 0000 0000 000000
2015-03-28 03:13:38,0.12,0.15,0.00,22.38,26.67,29.51,4.79,26.65,1020.99,2036.00,3430.42,3277.22,3557.22,349.97,349.88,1.12,0000 0000 0000 0000 000000
2015-03-28 03:18:39,0.13,0.15,0.00,22.50,26.70,29.60,4.78,26.75,1021.01,2036.00,3428.61,3275.99,3555.84,350.08,349.82,1.15,0000 0000 0000 0000 000000
2015-03-28 03:23:40,0.15,0.15,0.00,22.59,26.70,29.68,4.77,26.88,1021.01,2036.00,3426.79,3274.73,3554.47,350.30,350.08,1.18,0000 0000 0000 0000 000000
2015-03-28 03:28:41,0.13,0.16,0.00,23.10,26.72,29.71,4.79,26.79,1021.01,2036.00,3424.93,3273.50,3552.96,350.41,349.37,1.20,0000 0000 0000 0000 000000
2015-03-28 03:33:43,0.12,0.16,0.00,23.55,26.74,29.76,4.77,26.63,1021.00,2036.00,3423.19,3272.28,3551.62,349.81,348.35,1.23,0000 0000 0000 0000 000000
2015-03-28 03:38:44,0.12,0.17,0.00,23.01,26.77,29.68,4.73,26.52,1020.99,2035.98,3421.27,3271.00,3550.14,349.13,348.19,1.26,0000 0000 0000 0000 000000
2015-03-28 03:43:45,0.15,0.17,0.00,22.77,26.77,29.56,4.83,26.60,1020.85,2035.98,3419.39,3269.78,3548.76,349.70,349.11,1.29,0000 0000 0000 0000 000000
2015-03-28 03:48:47,0.12,0.17,0.00,23.12,26.77,29.33,4.76,26.52,1020.72,2035.98,3417.63,3268.71,3547.57,350.19,349.14,1.32,0000 0000 0000 0000 000000
2015-03-28 03:53:49,0.11,0.18,0.00,22.88,26.77,29.22,4.81,26.72,1020.56,2035.98,3416.08,3267.69,3546.46,349.74,348.94,1.35,0000 0000 0000 0000 000000
2015-03-28 03:58:50,0.12,0.18,0.00,22.47,26.76,29.16,4.79,26.76,1020.53,2035.99,3414.27,3266.60,3545.16,350.11,349.73,1.38,0000 0000 0000 0000 000000
2015-03-28 04:03:51,0.12,0.18,0.00,22.38,26.75,29.21,4.87,26.75,1020.53,2035.99,3412.56,3265.39,3543.86,349.90,349.61,1.41,0000 0000 0000 0000 000000
2015-03-28 04:08:52,0.12,0.19,0.00,22.39,26.74,29.28,4.74,26.72,1020.52,2035.98,3410.85,3264.34,3542.57,349.78,349.60,1.44,0000 0000 0000 0000 000000
2015-03-28 04:13:53,0.11,0.19,0.00,22.42,26.72,29.36,4.79,26.71,1020.53,2035.99,3409.23,3263.34,3541.42,349.84,349.69,1.47,0000 0000 0000 0000 000000
2015-03-28 04:18:54,0.12,0.20,0.00,22.47,26.72,29.35,4.83,26.68,1020.53,2035.98,3407.48,3262.26,3540.05,350.53,350.12,1.50,0000 0000 0000 0000 000000
2015-03-28 04:23:56,0.13,0.20,0.00,22.54,26.73,29.42,4.81,26.77,1020.53,2035.99,3405.69,3261.08,3538.77,350.07,349.55,1.53,0000 0000 0000 0000 000000
2015-03-28 04:28:57,0.12,0.20,0.00,22.62,26.75,29.59,4.82,26.79,1020.53,2035.98,3404.05,3259.95,3537.52,350.14,349.69,1.56,0000 0000 0000 0000 000000
2015-03-28 04:33:58,0.13,0.21,0.00,23.44,26.75,29.69,4.80,26.57,1020.53,2035.98,3402.35,3258.79,3536.20,350.54,349.15,1.59,0000 0000 0000 0000 000000
2015-03-28 04:39:00,0.14,0.21,0.00,23.48,26.77,29.74,4.76,26.62,1020.53,2035.96,3400.60,3257.59,3534.82,349.99,348.58,1.62,0000 0000 0000 0000 000000
2015-03-28 04:44:02,0.12,0.21,0.00,22.97,26.80,29.60,4.76,26.52,1020.52,2035.95,3398.88,3256.49,3533.59,350.31,349.37,1.64,0000 0000 0000 0000 000000
2015-03-28 04:49:03,0.11,0.22,0.00,22.89,26.80,29.44,4.81,26.55,1020.53,2035.96,3397.11,3255.38,3532.39,349.65,348.68,1.67,0000 0000 0000 0000 000000
2015-03-28 04:54:04,0.12,0.22,0.00,23.24,26.80,29.20,4.78,26.58,1020.52,2035.98,3395.57,3254.36,3531.22,350.36,349.12,1.70,0000 0000 0000 0000 000000
2015-03-28 04:59:06,0.12,0.22,0.00,22.77,26.77,29.23,4.83,26.75,1020.52,2035.97,3393.87,3253.34,3529.98,350.03,349.33,1.73,0000 0000 0000 0000 000000
2015-03-28 05:04:07,0.11,0.23,0.00,22.49,26.77,29.23,4.73,26.62,1020.51,2035.98,3392.29,3252.25,3528.77,349.99,349.61,1.76,0000 0000 0000 0000 000000
2015-03-28 05:09:09,0.11,0.23,0.00,22.45,26.75,29.33,4.78,26.84,1020.50,2035.99,3390.77,3251.19,3527.64,350.01,349.54,1.79,0000 0000 0000 0000 000000
2015-03-28 05:14:10,0.11,0.24,0.00,22.45,26.75,29.35,4.96,26.73,1020.51,2035.98,3389.16,3250.03,3526.38,350.05,349.66,1.82,0000 0000 0000 0000 000000
2015-03-28 05:19:12,0.11,0.24,0.00,22.50,26.75,29.44,4.79,26.67,1020.52,2035.98,3387.50,3248.95,3525.10,349.74,349.33,1.85,0000 0000 0000 0000 000000
2015-03-28 05:24:13,0.13,0.24,0.00,22.49,26.75,29.51,4.91,26.65,1020.52,2035.99,3385.78,3247.86,3523.89,350.51,350.19,1.88,0000 0000 0000 0000 000000
2015-03-28 05:29:14,0.13,0.25,0.00,23.10,26.75,29.63,4.81,26.64,1020.55,2035.97,3384.08,3246.72,3522.65,350.36,349.41,1.91,0000 0000 0000 0000 000000
2015-03-28 05:34:15,0.12,0.25,0.00,23.73,26.77,29.70,4.80,26.54,1020.55,2035.97,3382.39,3245.49,3521.34,350.44,348.63,1.94,0000 0000 0000 0000 000000
2015-03-28 05:39:16,0.12,0.25,0.00,23.27,26.79,29.71,4.77,26.54,1020.54,2035.97,3380.59,3244.38,3520.03,349.81,348.49,1.97,0000 0000 0000 0000 000000
2015-03-28 05:44:18,0.11,0.26,0.00,22.98,26.80,29.65,4.86,26.62,1020.53,2035.93,3378.73,3243.17,3518.83,350.71,349.76,2.00,0000 0000 0000 0000 000000
2015-03-28 05:49:19,0.11,0.26,0.00,23.21,26.80,29.40,4.81,26.51,1020.52,2035.97,3377.23,3242.15,3517.74,350.09,348.86,2.03,0000 0000 0000 0000 000000
2015-03-28 05:54:20,0.11,0.26,0.00,23.18,26.79,29.32,4.83,26.50,1020.52,2035.99,3375.75,3241.14,3516.69,349.92,348.86,2.05,0000 0000 0000 0000 000000
2015-03-28 05:59:21,0.13,0.27,0.00,22.98,26.77,29.35,4.76,26.63,1020.52,2035.99,3373.90,3240.03,3515.45,349.41,348.62,2.08,0000 0000 0000 0000 000000
2015-03-28 06:04:22,0.10,0.27,0.00,23.42,26.77,29.45,4.83,26.64,1020.52,2035.98,3372.46,3238.94,3514.25,349.93,348.46,2.11,0000 0000 0000 0000 000000
2015-03-28 06:09:24,0.13,0.28,0.00,23.68,26.77,29.51,4.79,26.60,1020.52,2035.98,3370.82,3237.84,3512.96,349.83,348.29,2.14,0000 0000 0000 0000 000000
2015-03-28 06:14:25,0.12,0.28,0.00,23.87,26.78,29.53,4.80,26.53,1020.52,2035.97,3369.24,3236.71,3511.69,350.15,348.05,2.17,0000 0000 0000 0000 000000
2015-03-28 06:19:27,0.12,0.28,0.00,24.04,26.80,29.42,4.81,26.59,1020.52,2035.94,3367.56,3235.54,3510.34,349.99,347.79,2.20,0000 0000 0000 0000 000000
2015-03-28 06:24:28,0.12,0.29,0.00,24.26,26.83,29.43,4.78,26.61,1020.52,2035.91,3365.83,3234.34,3508.93,350.00,347.52,2.23,0000 0000 0000 0000 000000
2015-03-28 06:29:29,0.05,0.29,0.00,24.39,26.86,29.52,4.83,26.63,1020.52,2035.40,3364.03,3232.91,3507.44,350.28,347.67,2.26,0000 0000 0000 0000 000000
2015-03-28 06:34:30,0.11,0.29,0.00,24.72,26.91,29.59,4.75,26.58,1020.52,2035.05,3362.21,3231.61,3505.85,349.61,346.52,2.29,0000 0000 0000 0000 000000
2015-03-28 06:39:32,0.13,0.30,0.00,24.79,26.96,29.73,4.65,26.34,1020.52,2035.00,3360.29,3230.21,3504.33,349.43,346.33,2.32,0000 0000 0000 0000 000000
2015-03-28 06:44:33,0.16,0.30,0.00,24.15,27.01,29.97,4.69,26.45,1020.52,2035.00,3358.36,3228.80,3502.77,349.78,347.44,2.35,0000 0000 0000 0000 000000
2015-03-28 06:49:34,0.13,0.30,0.00,23.68,27.04,30.20,4.81,26.57,1020.53,2034.99,3356.43,3227.54,3501.39,349.94,348.33,2.38,0000 0000 0000 0000 000000
2015-03-28 06:54:36,0.12,0.31,0.00,23.68,27.07,30.17,4.77,26.46,1020.53,2034.98,3354.68,3226.43,3500.10,349.87,348.06,2.41,0000 0000 0000 0000 000000
2015-03-28 06:59:37,0.12,0.31,0.00,24.12,27.08,30.06,4.73,26.50,1020.52,2034.90,3352.92,3225.24,3498.78,350.26,347.97,2.44,0000 0000 0000 0000 000000
2015-03-28 07:04:38,0.10,0.31,0.00,24.10,27.10,29.96,4.78,26.42,1020.52,2034.89,3351.39,3224.11,3497.54,349.63,347.37,2.46,0000 0000 0000 0000 000000
2015-03-28 07:09:39,0.11,0.32,0.00,24.22,27.11,29.99,4.75,26.52,1020.52,2034.83,3349.76,3223.05,3496.31,350.23,347.97,2.49,0000 0000 0000 0000 000000
2015-03-28 07:14:41,0.06,0.32,0.00,24.27,27.12,29.95,4.76,26.47,1020.52,2034.53,3348.13,3221.80,3494.86,349.93,347.36,2.52,0000 0000 0000 0000 000000
2015-03-28 07:19:42,0.09,0.32,0.00,24.51,27.14,29.78,4.73,26.52,1020.52,2034.10,3346.40,3220.61,3493.54,349.52,346.88,2.55,0000 0000 0000 0000 000000
2015-03-28 07:24:44,0.12,0.33,0.00,24.52,27.17,29.80,4.75,26.44,1020.52,2034.03,3344.65,3219.38,3492.12,349.58,346.74,2.58,0000 0000 0000 0000 000000
2015-03-28 07:29:45,0.14,0.33,0.00,24.23,27.19,30.03,4.75,26.39,1020.52,2034.01,3342.72,3218.04,3490.71,349.99,347.41,2.61,0000 0000 0000 0000 000000
2015-03-28 07:34:46,0.12,0.33,0.00,23.95,27.20,30.12,4.79,26.45,1020.52,2034.00,3340.89,3216.91,3489.48,349.88,347.86,2.64,0000 0000 0000 0000 000000
2015-03-28 07:39:47,0.12,0.34,0.00,23.81,27.21,30.11,4.83,26.48,1020.51,2034.00,3339.35,3215.83,3488.30,350.30,348.53,2.67,0000 0000 0000 0000 000000
2015-03-28 07:44:49,0.13,0.34,0.00,23.76,27.22,30.10,4.75,26.51,1020.44,2034.00,3337.68,3214.70,3486.97,349.72,347.92,2.70,0000 0000 0000 0000 000000
2015-03-28 07:49:50,0.13,0.35,0.00,23.76,27.22,30.09,4.78,26.35,1020.43,2034.00,3335.98,3213.50,3485.54,350.28,348.31,2.73,0000 0000 0000 0000 000000
2015-03-28 07:54:51,0.11,0.35,0.00,23.81,27.23,30.08,4.79,26.43,1020.47,2034.00,3334.33,3212.33,3484.21,349.79,347.84,2.76,0000 0000 0000 0000 000000
2015-03-28 07:59:53,0.14,0.35,0.00,23.90,27.25,30.05,4.76,26.63,1020.44,2033.99,3332.53,3211.03,3482.74,349.81,347.75,2.79,0000 0000 0000 0000 000000
2015-03-28 08:04:54,0.13,0.36,0.00,24.00,27.26,30.05,4.78,26.47,1020.43,2033.97,3330.75,3209.84,3481.41,350.09,348.23,2.82,0000 0000 0000 0000 000000
2015-03-28 08:09:55,0.13,0.36,0.00,24.08,27.28,30.04,4.80,26.50,1020.48,2033.92,3329.02,3208.57,3480.06,350.54,348.56,2.85,0000 0000 0000 0000 000000
2015-03-28 08:14:57,0.10,0.36,0.00,24.12,27.30,30.03,4.76,26.60,1020.51,2033.75,3327.30,3207.40,3478.63,349.88,347.70,2.87,0000 0000 0000 0000 000000
2015-03-28 08:19:58,0.06,0.37,0.00,24.23,27.33,30.07,4.69,26.49,1020.50,2033.34,3325.50,3206.10,3477.26,349.46,346.98,2.90,0000 0000 0000 0000 000000
2015-03-28 08:25:00,0.11,0.37,0.00,24.31,27.36,30.10,4.72,26.50,1020.50,2033.10,3323.67,3204.81,3475.84,349.64,347.20,2.93,0000 0000 0000 0000 000000
2015-03-28 08:30:01,0.13,0.37,0.00,24.36,27.39,30.15,4.70,26.52,1020.51,2033.02,3321.90,3203.54,3474.43,349.33,346.88,2.96,0000 0000 0000 0000 000000
2015-03-28 08:35:02,0.12,0.38,0.00,24.58,27.43,30.15,4.76,26.44,1020.50,2033.00,3320.11,3202.27,3472.94,349.52,346.69,2.99,0000 0000 0000 0000 000000
2015-03-28 08:40:04,0.14,0.38,0.00,24.44,27.47,30.33,4.71,26.43,1020.52,2032.99,3318.36,3200.96,3471.53,349.24,346.75,3.02,0000 0000 0000 0000 000000
2015-03-28 08:45:05,0.12,0.39,0.00,23.90,27.50,30.57,4.74,26.48,1020.52,2032.98,3316.64,3199.80,3470.23,349.64,347.59,3.05,0000 0000 0000 0000 000000
2015-03-28 08:50:06,0.11,0.39,0.00,24.18,27.52,30.61,4.79,26.44,1020.52,2032.98,3314.95,3198.79,3468.98,349.76,347.41,3.08,0000 0000 0000 0000 000000
2015-03-28 08:55:07,0.12,0.39,0.00,24.20,27.53,30.58,4.83,26.53,1020.52,2032.98,3313.23,3197.78,3467.86,350.27,347.68,3.11,0000 0000 0000 0000 000000
2015-03-28 09:00:09,0.13,0.40,0.00,24.16,27.55,30.54,4.75,26.54,1020.52,2032.96,3311.50,3196.59,3466.57,349.68,347.28,3.14,0000 0000 0000 0000 000000
2015-03-28 09:05:10,0.12,0.40,0.00,24.29,27.56,30.49,4.81,26.53,1020.52,2032.93,3309.75,3195.36,3465.25,350.18,347.69,3.17,0000 0000 0000 0000 000000
2015-03-28 09:10:11,0.05,0.40,0.00,24.48,27.58,30.42,4.81,26.49,1020.52,2032.56,3307.96,3194.06,3463.81,349.77,346.90,3.20,0000 0000 0000 0000 000000
2015-03-28 09:15:13,0.14,0.41,0.00,24.41,27.60,30.53,4.75,26.35,1020.52,2032.38,3306.03,3192.81,3462.57,349.65,347.03,3.23,0000 0000 0000 0000 000000
2015-03-28 09:20:14,0.12,0.41,0.00,24.16,27.61,30.53,4.83,26.56,1020.52,2032.29,3304.09,3191.67,3461.38,350.16,347.71,3.26,0000 0000 0000 0000 000000
2015-03-28 09:25:15,0.16,0.42,0.00,24.39,27.62,30.35,4.79,26.47,1020.51,2032.62,3302.50,3190.64,3460.27,350.23,347.83,3.28,0000 0000 0000 0000 000000
2015-03-28 09:30:16,0.12,0.42,0.00,24.30,27.62,30.32,4.75,26.36,1020.51,2032.72,3301.06,3189.67,3459.13,350.39,347.57,3.31,0000 0000 0000 0000 000000
2015-03-28 09:35:17,0.13,0.42,0.00,24.12,27.61,30.37,4.78,26.37,1020.50,2032.81,3299.57,3188.67,3457.86,350.03,347.73,3.34,0000 0000 0000 0000 000000
2015-03-28 09:40:19,0.10,0.43,0.00,24.35,27.61,30.42,4.77,26.39,1020.47,2032.75,3298.05,3187.60,3456.67,350.08,347.53,3.37,0000 0000 0000 0000 000000
2015-03-28 09:45:20,0.07,0.43,0.00,24.46,27.62,30.43,4.70,26.44,1020.42,2032.43,3296.60,3186.49,3455.46,349.60,346.83,3.40,0000 0000 0000 0000 000000
2015-03-28 09:50:21,0.10,0.43,0.00,24.28,27.61,30.27,4.82,26.45,1020.32,2032.43,3295.01,3185.50,3454.39,350.17,347.65,3.43,0000 0000 0000 0000 000000
2015-03-28 09:55:22,0.12,0.43,0.00,24.42,27.60,30.21,4.72,26.48,1020.38,2032.41,3293.48,3184.50,3453.22,349.60,346.92,3.46,0000 0000 0000 0000 000000
2015-03-28 10:00:23,0.12,0.44,0.00,24.34,27.59,30.23,4.77,26.43,1020.22,2032.47,3291.83,3183.55,3452.14,350.17,347.64,3.49,0000 0000 0000 0000 000000
2015-03-28 10:05:24,0.13,0.44,0.00,24.18,27.57,30.22,4.77,26.41,1020.15,2032.64,3290.50,3182.58,3451.03,350.50,348.09,3.52,0000 0000 0000 0000 000000
2015-03-28 10:10:26,0.10,0.45,0.00,24.23,27.57,30.27,4.76,26.52,1020.11,2032.56,3289.09,3181.58,3449.83,350.46,347.86,3.55,0000 0000 0000 0000 000000
2015-03-28 10:15:27,0.07,0.45,0.00,24.32,27.57,30.31,4.78,26.62,1020.06,2032.34,3287.69,3180.55,3448.62,350.15,347.47,3.58,0000 0000 0000 0000 000000
2015-03-28 10:20:28,0.08,0.45,0.00,24.56,27.57,30.36,4.72,26.50,1020.05,2032.21,3286.32,3179.58,3447.53,349.78,346.87,3.61,0000 0000 0000 0000 000000
2015-03-28 10:25:29,0.10,0.45,0.00,24.15,27.57,30.41,4.73,26.37,1020.05,2032.09,3284.81,3178.54,3446.34,350.10,347.75,3.64,0000 0000 0000 0000 000000
2015-03-28 10:30:31,0.10,0.46,0.00,24.15,27.57,30.25,4.81,26.49,1020.04,2032.05,3283.31,3177.52,3445.21,350.47,347.96,3.67,0000 0000 0000 0000 000000
2015-03-28 10:35:32,0.11,0.46,0.00,24.30,27.55,30.19,4.80,26.43,1020.04,2032.11,3281.86,3176.73,3444.16,350.58,347.90,3.69,0000 0000 0000 0000 000000
2015-03-28 10:40:33,0.11,0.46,0.00,24.11,27.55,30.22,4.78,26.48,1020.00,2032.14,3280.43,3175.75,3443.16,350.01,347.57,3.72,0000 0000 0000 0000 000000
2015-03-28 10:45:34,0.10,0.47,0.00,24.13,27.54,30.27,4.79,26.44,1019.93,2032.09,3278.98,3174.74,3441.96,350.34,347.65,3.75,0000 0000 0000 0000 000000
2015-03-28 10:50:36,0.11,0.47,0.00,24.22,27.54,30.30,4.72,26.48,1019.81,2032.07,3277.51,3173.74,3440.83,349.81,347.23,3.78,0000 0000 0000 0000 000000
2015-03-28 10:55:37,0.12,0.47,0.00,24.51,27.54,30.35,4.77,26.52,1019.62,2032.06,3276.05,3172.68,3439.69,350.00,346.94,3.81,0000 0000 0000 0000 000000
2015-03-28 11:00:38,0.12,0.48,0.00,24.30,27.55,30.41,4.70,26.52,1019.62,2032.05,3274.36,3171.61,3438.50,349.56,346.75,3.84,0000 0000 0000 0000 000000
2015-03-28 11:05:39,0.12,0.48,0.00,23.91,27.55,30.32,4.79,26.50,1019.61,2032.14,3272.74,3170.75,3437.65,350.70,348.34,3.87,0000 0000 0000 0000 000000
2015-03-28 11:10:40,0.17,0.48,0.00,24.25,27.53,30.11,4.71,26.43,1019.57,2032.47,3271.17,3169.88,3436.74,349.84,347.09,3.90,0000 0000 0000 0000 000000
2015-03-28 11:15:42,0.12,0.49,0.00,24.12,27.52,30.10,4.87,26.50,1019.56,2032.73,3269.75,3168.98,3435.66,350.47,347.86,3.93,0000 0000 0000 0000 000000
2015-03-28 11:20:42,0.13,0.49,0.00,24.03,27.52,30.13,4.79,26.52,1019.56,2032.83,3268.39,3168.05,3434.59,349.95,347.53,3.96,0000 0000 0000 0000 000000
2015-03-28 11:25:44,0.10,0.50,0.00,24.11,27.52,30.25,4.81,26.47,1019.55,2032.86,3267.04,3167.05,3433.55,350.05,347.62,3.99,0000 0000 0000 0000 000000
2015-03-28 11:30:45,0.08,0.50,0.00,24.20,27.51,30.28,4.76,26.58,1019.55,2032.67,3265.47,3165.93,3432.36,350.23,346.99,4.02,0000 0000 0000 0000 000000
2015-03-28 11:35:46,0.07,0.50,0.00,24.50,27.52,30.32,4.65,26.38,1019.55,2032.50,3264.19,3164.96,3431.06,349.45,346.39,4.05,0000 0000 0000 0000 000000
2015-03-28 11:40:48,0.05,0.50,0.00,24.16,27.52,30.40,4.78,26.49,1019.55,2032.19,3263.18,3163.98,3429.79,350.37,347.78,4.08,0000 0000 0000 0000 000000
2015-03-28 11:45:49,0.11,0.51,0.00,23.76,27.52,30.25,4.83,26.55,1019.55,2032.06,3261.64,3163.06,3428.71,350.28,348.14,4.10,0000 0000 0000 0000 000000
2015-03-28 11:50:50,0.11,0.51,0.00,24.18,27.52,30.06,4.78,26.39,1019.53,2032.14,3260.48,3162.20,3427.67,350.40,347.63,4.13,0000 0000 0000 0000 000000
2015-03-28 11:55:51,0.08,0.51,0.00,24.05,27.50,30.09,4.81,26.57,1019.53,2032.13,3259.37,3161.31,3426.55,349.36,346.81,4.16,0000 0000 0000 0000 000000
2015-03-28 12:00:52,0.10,0.52,0.00,23.97,27.49,30.09,4.81,26.59,1019.46,2032.06,3257.98,3160.27,3425.31,350.23,347.75,4.19,0000 0000 0000 0000 000000
2015-03-28 12:05:54,0.11,0.52,0.00,24.00,27.48,30.23,4.79,26.50,1019.27,2032.05,3256.71,3159.40,3424.28,350.08,347.40,4.22,0000 0000 0000 0000 000000
2015-03-28 12:10:55,0.10,0.52,0.00,24.07,27.47,30.25,4.75,26.56,1019.21,2032.02,3255.38,3158.45,3423.17,349.95,347.29,4.25,0000 0000 0000 0000 000000
2015-03-28 12:15:56,0.12,0.52,0.00,24.15,27.47,30.23,4.75,26.36,1019.18,2032.00,3253.71,3157.42,3421.96,350.19,347.49,4.28,0000 0000 0000 0000 000000
2015-03-28 12:20:57,0.11,0.53,0.00,24.44,27.48,30.29,4.84,26.58,1019.11,2032.01,3252.10,3156.36,3420.86,350.25,347.10,4.31,0000 0000 0000 0000 000000
2015-03-28 12:25:58,0.12,0.53,0.00,24.37,27.50,30.41,4.81,26.46,1019.07,2032.00,3250.66,3155.32,3419.74,350.17,346.99,4.34,0000 0000 0000 0000 000000
2015-03-28 12:30:59,0.12,0.53,0.00,23.61,27.50,30.41,4.78,26.43,1019.09,2032.00,3248.97,3154.36,3418.62,350.48,348.26,4.37,0000 0000 0000 0000 000000
2015-03-28 12:36:01,0.11,0.54,0.00,23.53,27.50,30.03,4.80,26.42,1019.08,2032.00,3247.50,3153.33,3417.61,350.32,348.36,4.40,0000 0000 0000 0000 000000
2015-03-28 12:41:02,0.09,0.54,0.00,23.94,27.48,29.81,4.77,26.41,1019.06,2032.00,3246.21,3152.60,3416.70,350.23,347.62,4.43,0000 0000 0000 0000 000000
2015-03-28 12:46:03,0.09,0.54,0.00,23.81,27.46,29.91,4.78,26.50,1019.06,2032.02,3244.91,3151.81,3415.79,350.29,347.83,4.46,0000 0000 0000 0000 000000
2015-03-28 12:51:04,0.10,0.55,0.00,23.75,27.45,30.00,4.74,26.47,1019.06,2032.03,3243.54,3150.93,3414.80,350.41,348.03,4.49,0000 0000 0000 0000 000000
2015-03-28 12:56:05,0.12,0.55,0.00,23.85,27.43,30.06,4.81,26.62,1019.06,2032.04,3241.93,3149.91,3413.74,350.31,347.76,4.51,0000 0000 0000 0000 000000
2015-03-28 13:01:07,0.11,0.55,0.00,23.93,27.42,30.12,4.75,26.65,1019.05,2032.02,3240.17,3148.89,3412.71,349.42,346.84,4.54,0000 0000 0000 0000 000000
2015-03-28 13:06:08,0.14,0.56,0.00,24.00,27.42,30.19,4.79,26.48,1019.06,2032.11,3238.58,3147.87,3411.76,350.30,347.70,4.57,0000 0000 0000 0000 000000